Terminal Aerodrome Forecast
Issued by NWS

Home | Current Version | Previous Version | Graphics & Text | Print | Product List | Glossary On
Versions: 1 2 3 4 5 6 7 8 9 10 11 12
389
FTUS42 KMHX 161121
TAFOAJ
TAF
KOAJ 161121Z 1612/1712 VRB03KT P6SM SKC
     FM161600 29004KT P6SM SKC
      AMD LTD TO CLD VIS AND WIND=

USA.gov is the U.S. government's official web portal to all federal, state and local government web resources and services.